FORMOSAT-5

Last updated on Tue Sep 16 2025 00:02:31 GMT+0000 (Coordinated Universal Time)

1 42920U 17049A 25258.57299974 .00000155 00000+0 50288-4 0 9999 2 42920 98.2532 334.6085 0010653 196.5994 163.4854 14.50923678426856
UTC large
Height (km)
Speed (km/s)
/
Latitude / Longitude
Inclination (degrees)
Orbital Period (minutes)
Azimuth
Elevation
Range (km)
Doppler Factor

Next 0 passes for location: London (51.5072 / 0.1276)

Sorry there are no passes over London.